DateTime,F1_A11,F1_S11,BsB_S11,BsG_S11,BsR_S11,BbsB_S11,BbsG_S11,BbsR_S11,BaB_A11,BaG_A11,BaR_A11,T_S11,U_S11,P_S11,T1_A11
2016-01-22T00:00:00Z,0000380,21000600,,,,,,,,,,25.5,00.0,0644.4,34.6
2016-01-22T00:01:00Z,0000380,21000600,,,,,,,,,,25.5,00.0,0644.4,34.6
2016-01-22T00:02:00Z,0000380,21000600,,,,,,,,,,25.5,00.0,0644.4,34.6
2016-01-22T00:03:00Z,0000380,61000600,,,,,,,,,,25.6,00.0,0644.4,34.6
2016-01-22T00:04:00Z,0000380,41000600,0000.20,0000.02,0000.16,0000.15,-000.36,0000.44,-000.10,0000.06,-000.16,25.7,00.0,0645.1,34.6
2016-01-22T00:05:00Z,0000380,01000600,-000.02,-000.02,-000.24,0000.23,0000.18,-000.03,-000.06,-000.03,0000.02,25.7,00.0,0645.1,34.6
2016-01-22T00:06:00Z,0000380,01000600,0001.06,0000.41,-000.01,-000.83,-000.29,0000.28,-000.11,0000.01,0000.05,25.7,00.0,0645.1,34.6
2016-01-22T00:07:00Z,0000380,01000600,0000.34,0000.35,0000.20,-000.52,0000.02,0000.05,-000.01,-000.01,-000.10,25.7,00.0,0645.1,34.6
2016-01-22T00:08:00Z,0000380,01000600,0000.88,0000.37,-000.01,0000.28,0000.08,0000.18,-000.05,-000.11,0000.11,25.7,00.0,0645.1,34.6
2016-01-22T00:09:00Z,0000380,01000600,-000.19,0000.58,0000.17,-000.26,-000.36,0000.07,0000.34,0000.38,0000.02,25.7,00.0,0645.1,34.6
2016-01-22T00:10:00Z,0000380,01000600,0001.51,0000.40,0000.18,0000.28,0000.13,-000.18,0000.14,-000.21,-000.17,25.7,00.0,0645.2,34.6
2016-01-22T00:11:00Z,0000380,01000600,-000.09,-000.21,-000.47,0000.44,-000.20,-000.08,0000.21,0000.38,0000.31,25.7,00.0,0645.2,34.6
2016-01-22T00:12:00Z,0000380,01000600,0000.42,0000.45,0000.11,-000.64,0000.37,0000.00,-000.06,0000.05,0000.02,25.7,00.0,0645.2,34.6
2016-01-22T00:13:00Z,0000380,01000600,0000.73,0000.18,0000.70,-000.49,-000.15,0000.13,-000.27,-000.23,0000.17,25.7,00.0,0645.2,34.6
2016-01-22T00:14:00Z,0000380,01000600,0000.48,-000.17,0000.56,-000.36,-000.07,0000.39,0000.10,0000.10,-000.09,25.7,00.0,0645.2,34.6
2016-01-22T00:15:00Z,0000380,01000600,0000.00,0000.06,0000.10,-000.13,0000.07,-000.13,-000.09,-000.08,-000.04,25.7,00.0,0645.1,34.6
2016-01-22T00:16:00Z,0000380,01000600,-000.26,0000.00,0000.46,-000.39,0000.41,0000.08,0000.14,0000.10,-000.07,25.7,00.0,0645.1,34.6
2016-01-22T00:17:00Z,0000380,01000600,0000.28,0000.16,0000.13,-000.38,0000.10,0000.16,0000.15,0000.09,0000.23,25.7,00.0,0645.1,34.6
2016-01-22T00:18:00Z,0000380,01000600,0000.76,0000.60,-000.35,0000.21,0000.00,0000.10,-000.18,-000.16,-000.28,25.7,00.0,0645.1,34.6
2016-01-22T00:19:00Z,0000380,01000600,0001.40,0000.22,0000.14,0000.28,0000.07,0000.03,-000.02,-000.05,0000.07,25.7,00.0,0645.1,34.6
2016-01-22T00:20:00Z,0000380,01000600,0000.71,0000.14,-000.37,-000.36,0000.20,-000.21,-000.11,0000.02,0000.16,25.7,00.0,0645.1,34.6
2016-01-22T00:21:00Z,0000380,01000600,0000.56,-000.06,-000.04,0000.15,0000.36,-000.65,0000.08,0000.01,0000.05,25.7,00.0,0645.1,34.6
2016-01-22T00:22:00Z,0000380,01000600,0000.79,-000.61,0000.00,-000.21,0000.26,0000.13,-000.16,-000.04,-000.07,25.7,00.0,0645.1,34.6
2016-01-22T00:23:00Z,0000380,01000600,0000.63,0000.13,-000.09,-000.23,0000.16,-000.02,0000.41,0000.14,-000.05,25.7,00.0,0645.0,34.6
2016-01-22T00:24:00Z,0000380,01000600,0000.69,0000.55,0000.03,0000.88,0000.15,-000.11,-000.27,-000.07,0000.05,25.7,00.0,0645.0,34.6
2016-01-22T00:25:00Z,0000380,01000600,0000.18,0000.20,0000.62,0000.47,-000.10,0000.11,-000.06,-000.12,0000.12,25.7,00.0,0645.0,34.6
2016-01-22T00:26:00Z,0000380,01000600,0000.73,0000.66,-000.09,0000.03,-000.15,-000.18,0000.00,0000.09,-000.13,25.7,00.0,0645.0,34.6
2016-01-22T00:27:00Z,0000380,01000600,0000.39,0000.23,0000.16,-000.31,0000.13,0000.00,0000.42,0000.37,0000.16,25.7,00.0,0645.0,34.6
2016-01-22T00:28:00Z,0000380,01000600,0000.60,-000.29,0000.31,-000.02,0000.13,0000.10,0000.05,-000.04,-000.15,25.7,00.0,0644.9,34.6
2016-01-22T00:29:00Z,0000380,01000600,0000.85,0000.13,-000.05,-000.33,0000.41,-000.25,0000.03,0000.01,0000.44,25.7,00.0,0644.9,34.6
2016-01-22T00:30:00Z,0000380,01000600,0000.05,-000.02,0000.39,0000.03,0000.15,0000.34,-000.17,-000.03,-000.08,25.7,00.0,0644.9,34.6
2016-01-22T00:31:00Z,0000380,01000600,0000.55,0000.31,0000.36,0000.11,0000.02,0000.25,0000.37,0000.16,-000.13,25.7,00.0,0644.9,34.6
2016-01-22T00:32:00Z,0000380,01000600,0000.70,0001.12,-000.21,0000.34,-000.21,0000.07,-000.21,-000.11,-000.35,25.7,00.0,0644.9,34.6
2016-01-22T00:33:00Z,0000380,01000600,-000.15,0000.81,-000.24,0000.47,-000.03,-000.05,-000.09,-000.07,0000.40,25.7,00.0,0644.9,34.6
2016-01-22T00:34:00Z,0000380,01000600,0001.63,0000.69,0000.11,0000.03,0000.26,-000.25,-000.14,-000.17,0000.04,25.7,00.0,0644.9,34.6
2016-01-22T00:35:00Z,0000380,01000600,0001.30,0000.47,0000.08,-000.90,0000.03,0000.10,-000.12,0000.05,-000.40,25.7,00.0,0644.9,34.6
2016-01-22T00:36:00Z,0000380,01000600,-000.09,-000.21,0000.11,0000.05,0000.26,-000.13,0000.10,-000.04,0000.16,25.7,00.0,0644.9,34.6
2016-01-22T00:37:00Z,0000380,01000600,-000.38,0000.20,-000.23,-000.52,0000.23,-000.21,-000.06,0000.07,0000.07,25.7,00.0,0644.9,34.6
2016-01-22T00:38:00Z,0000380,01000600,-000.29,0000.20,0000.10,0000.29,0000.00,0000.15,0000.00,-000.03,-000.12,25.7,00.0,0645.0,34.6
2016-01-22T00:39:00Z,0000380,01000600,0001.62,0000.49,0000.09,-000.39,0000.07,-000.16,0000.19,0000.10,0000.04,25.7,00.0,0645.0,34.6
2016-01-22T00:40:00Z,0000380,01000600,0000.26,-000.26,0000.29,0000.07,0000.18,0000.11,-000.17,-000.03,0000.42,25.7,00.0,0645.0,34.6
2016-01-22T00:41:00Z,0000380,01000600,0000.60,0000.61,0000.60,-000.18,0000.39,-000.25,-000.04,-000.04,-000.26,25.7,00.0,0645.0,34.6
2016-01-22T00:42:00Z,0000380,01000600,0000.37,0000.06,0000.35,-000.15,0000.39,0000.02,0000.17,-000.02,-000.28,25.7,00.0,0644.9,34.6
2016-01-22T00:43:00Z,0000380,01000600,-000.75,-000.29,0000.26,-000.02,0000.03,0000.07,-000.14,0000.09,0000.46,25.7,00.0,0644.9,34.6
2016-01-22T00:44:00Z,0000380,01000600,0000.48,0000.80,-000.02,-000.18,0000.29,0000.11,0000.04,-000.23,-000.10,25.7,00.0,0644.9,34.6
2016-01-22T00:45:00Z,0000380,01000600,-000.08,-000.36,-000.19,-000.16,-000.08,0000.03,-000.20,0000.16,-000.09,25.7,00.0,0644.9,34.6
2016-01-22T00:46:00Z,0000380,01000600,0001.28,0000.24,0000.03,0000.33,0000.00,-000.02,-000.02,-000.17,-000.16,25.6,00.0,0644.9,34.6
2016-01-22T00:47:00Z,0000380,01000600,0000.91,0000.63,-000.06,0000.10,0000.24,0000.33,-000.06,0000.02,0000.32,25.6,00.0,0645.0,34.6
2016-01-22T00:48:00Z,0000380,01000600,0000.95,-000.11,0000.15,0000.28,-000.13,-000.02,0000.11,0000.12,-000.05,25.6,00.0,0645.0,34.6
2016-01-22T00:49:00Z,0000380,01000600,0000.60,0000.14,0000.52,-000.10,0000.29,0000.20,-000.02,-000.20,-000.18,25.7,00.0,0645.0,34.6
2016-01-22T00:50:00Z,0000380,01000600,0000.89,0000.15,-000.05,0000.05,0000.21,0000.16,0000.13,0000.25,0000.31,25.6,00.0,0645.0,34.6
2016-01-22T00:51:00Z,0000380,01000600,0000.96,-000.02,0000.34,-000.77,0000.07,0000.23,-000.05,-000.02,-000.13,25.6,00.0,0644.9,34.6
2016-01-22T00:52:00Z,0000380,01000600,-000.19,-000.11,0000.38,0000.28,-000.20,-000.03,-000.08,0000.05,0000.05,25.6,00.0,0644.9,34.6
2016-01-22T00:53:00Z,0000380,01000600,0000.09,-000.11,0000.18,-000.39,-000.29,-000.08,0000.11,-000.10,0000.10,25.6,00.0,0644.8,34.6
2016-01-22T00:54:00Z,0000380,01000600,0000.30,0000.03,0000.00,-000.31,0000.05,-000.10,0000.05,0000.05,0000.23,25.6,00.0,0644.8,34.6
2016-01-22T00:55:00Z,0000380,01000600,0000.85,0000.87,0000.05,-000.05,-000.34,0000.08,0000.02,0000.12,-000.15,25.6,00.0,0644.8,34.6
2016-01-22T00:56:00Z,0000380,01000600,-000.16,-000.12,0000.19,-000.07,0000.21,0000.29,0000.05,-000.01,-000.32,25.5,00.0,0644.8,34.6
2016-01-22T00:57:00Z,0000380,41000600,,,,,,,,,,,,0644.8,34.6
2016-01-22T00:58:00Z,0000380,61000600,,,,,,,,,,25.5,00.0,0644.0,34.6
2016-01-22T00:59:00Z,0000380,21000600,,,,,,,,,,25.5,00.0,0644.0,34.6
2016-01-22T01:00:00Z,0000380,21000600,,,,,,,,,,25.5,00.0,0644.0,34.6
2016-01-22T01:01:00Z,0000380,21000600,,,,,,,,,,25.5,00.0,0644.0,34.6
2016-01-22T01:02:00Z,0000380,21000600,,,,,,,,,,25.5,00.0,0644.0,34.6
2016-01-22T01:03:00Z,0000380,61000600,,,,,,,,,,25.5,00.0,0644.0,34.6
2016-01-22T01:04:00Z,0000380,41000600,0001.13,-000.52,-000.09,0000.11,-000.20,0000.02,-000.05,-000.04,0000.07,25.6,00.0,0644.8,34.6
2016-01-22T01:05:00Z,0000380,01000600,0000.13,-000.20,0000.07,-000.16,-000.15,0000.07,0000.27,-000.21,0000.33,25.6,00.0,0644.8,34.6
2016-01-22T01:06:00Z,0000380,01000600,-000.56,-000.61,-000.43,0000.34,0000.10,-000.57,-000.13,0000.31,0000.06,25.6,00.0,0644.8,34.6
2016-01-22T01:07:00Z,0000380,01000600,0000.09,-000.26,0000.13,0000.56,-000.23,0000.10,-000.31,-000.16,-000.20,25.6,00.0,0644.8,34.6
2016-01-22T01:08:00Z,0000380,01000600,0000.94,-000.48,0000.13,0000.16,0000.37,-000.16,0000.22,-000.01,0000.12,25.7,00.0,0644.8,34.6
2016-01-22T01:09:00Z,0000380,01000600,0000.12,-000.10,0000.20,0000.07,0000.33,0000.25,-000.19,-000.09,-000.17,25.7,00.0,0644.8,34.6
2016-01-22T01:10:00Z,0000380,01000600,-000.34,0000.07,-000.25,-000.31,-000.02,0000.11,-000.00,-000.03,0000.08,25.7,00.0,0644.8,34.6
2016-01-22T01:11:00Z,0000380,01000600,-000.31,0000.36,0000.14,-000.16,0000.33,0000.15,0000.26,0000.01,-000.15,25.7,00.0,0644.8,34.6
2016-01-22T01:12:00Z,0000380,01000600,0000.08,-000.04,-000.13,0000.39,-000.02,-000.23,-000.23,0000.16,-000.01,25.7,00.0,0644.8,34.6
2016-01-22T01:13:00Z,0000380,01000600,0000.13,0000.00,-000.49,-000.52,0000.18,-000.05,-000.03,-000.22,0000.09,25.8,00.0,0644.8,34.6
2016-01-22T01:14:00Z,0000380,01000600,-000.13,-000.76,-000.41,-000.69,-000.03,-000.29,0000.02,0000.04,0000.24,25.7,00.0,0644.8,34.6
2016-01-22T01:15:00Z,0000380,01000600,0000.02,-000.04,-000.60,-000.10,0000.11,-000.47,-000.11,0000.01,-000.08,25.8,00.0,0644.8,34.7
2016-01-22T01:16:00Z,0000380,01000600,0000.34,-000.13,-000.40,0000.08,0000.05,0000.02,-000.05,-000.01,-000.04,25.8,00.0,0644.8,34.7
2016-01-22T01:17:00Z,0000380,01000600,0001.13,0000.37,-000.34,0000.16,-000.52,-000.08,0000.12,-000.03,-000.14,25.8,00.0,0644.7,34.7
2016-01-22T01:18:00Z,0000380,01000600,0000.66,-000.46,-000.02,-000.20,-000.29,-000.23,0000.17,0000.07,0000.32,25.8,00.0,0644.7,34.7
2016-01-22T01:19:00Z,0000380,01000600,-000.60,0000.11,0000.40,0000.67,0000.21,-000.20,-000.19,-000.01,-000.30,25.8,00.0,0644.7,34.7
2016-01-22T01:20:00Z,0000380,01000600,0001.11,-000.18,0000.05,0000.29,-000.03,-000.26,-000.14,0000.01,-000.10,25.8,00.0,0644.7,34.7
2016-01-22T01:21:00Z,0000380,01000600,-000.24,0000.13,0000.07,0000.10,-000.41,0000.08,0000.02,-000.06,0000.22,25.8,00.0,0644.7,34.7
2016-01-22T01:22:00Z,0000380,01000600,-000.24,-000.41,0000.32,0000.85,0000.15,0000.05,0000.12,0000.10,-000.22,25.8,00.0,0644.7,34.7
2016-01-22T01:23:00Z,0000380,01000600,-000.24,-000.74,-000.06,0000.02,-000.41,-000.15,0000.01,0000.04,0000.24,25.8,00.0,0644.7,34.7
2016-01-22T01:24:00Z,0000380,01000600,-000.40,-000.61,-000.23,0001.05,-000.16,0000.00,-000.03,-000.01,-000.07,25.8,00.0,0644.7,34.7
2016-01-22T01:25:00Z,0000380,01000600,0000.15,0000.17,0000.05,-000.31,-000.21,-000.07,0000.17,-000.16,-000.19,25.8,00.0,0644.7,34.7
2016-01-22T01:26:00Z,0000380,01000600,0000.39,-000.07,0000.07,0000.70,0000.10,-000.05,-000.15,0000.16,0000.02,25.8,00.0,0644.7,34.7
2016-01-22T01:27:00Z,0000380,01000600,0000.77,0000.28,-000.11,-000.23,-000.16,0000.23,-000.03,-000.15,-000.06,25.8,00.0,0644.7,34.7
2016-01-22T01:28:00Z,0000380,01000600,-000.53,0000.09,-000.51,0000.65,-000.41,0000.11,0000.10,0000.01,0000.21,25.8,00.0,0644.7,34.7
2016-01-22T01:29:00Z,0000380,01000600,0000.60,-000.57,-000.27,-000.47,0000.21,0000.02,-000.13,0000.01,-000.04,25.8,00.0,0644.6,34.7
2016-01-22T01:30:00Z,0000380,01000600,0000.06,-000.28,-000.43,-000.49,-000.44,-000.25,0000.16,0000.16,-000.05,25.8,00.0,0644.7,34.7
2016-01-22T01:31:00Z,0000380,01000600,-000.21,-000.26,-000.07,-000.23,-000.42,-000.33,0000.12,-000.12,0000.06,25.8,00.0,0644.6,34.7
2016-01-22T01:32:00Z,0000380,01000600,-000.55,0000.46,0000.23,0000.33,0000.42,0000.02,-000.06,0000.18,0000.06,25.8,00.0,0644.7,34.7
2016-01-22T01:33:00Z,0000380,01000600,0001.24,-000.17,0000.02,0000.51,-000.07,-000.44,-000.00,-000.07,0000.11,25.8,00.0,0644.6,34.7
2016-01-22T01:34:00Z,0000380,01000600,0000.02,-000.20,-000.09,0000.34,-000.02,-000.18,0000.03,-000.04,-000.27,25.8,00.0,0644.6,34.7
2016-01-22T01:35:00Z,0000380,01000600,-000.13,-000.37,0000.14,-000.23,-000.08,-000.48,-000.16,-000.13,0000.37,25.9,00.0,0644.6,34.7
2016-01-22T01:36:00Z,0000380,01000600,0000.28,-000.20,-000.02,-000.03,-000.10,0000.15,0000.24,0000.19,-000.11,25.8,00.0,0644.6,34.7
2016-01-22T01:37:00Z,0000380,01000600,0000.30,-000.22,-000.16,0000.62,-000.37,-000.47,-000.20,0000.10,-000.01,25.8,00.0,0644.6,34.7
2016-01-22T01:38:00Z,0000380,01000600,-000.38,-000.09,-000.25,-000.31,-000.21,0000.15,0000.07,-000.13,0000.12,25.9,00.0,0644.6,34.7
2016-01-22T01:39:00Z,0000380,01000600,0000.74,0000.01,0000.25,0000.15,-000.42,0000.02,-000.11,0000.12,0000.05,25.9,00.0,0644.6,34.7
2016-01-22T01:40:00Z,0000380,01000600,0000.97,0000.13,0000.59,0000.41,0000.34,0000.05,0000.17,-000.04,-000.23,25.9,00.0,0644.6,34.7
2016-01-22T01:41:00Z,0000380,01000600,-000.02,-000.34,-000.26,0000.36,-000.08,-000.13,-000.06,0000.10,0000.18,25.9,00.0,0644.6,34.7
2016-01-22T01:42:00Z,0000380,01000600,0000.77,-000.44,-000.29,0000.20,-000.05,0000.02,-000.08,-000.07,-000.03,25.9,00.0,0644.5,34.7
2016-01-22T01:43:00Z,0000380,01000600,-000.17,-000.17,-000.07,0000.46,0000.08,0000.02,0000.10,0000.02,0000.19,25.9,00.0,0644.6,34.7
2016-01-22T01:44:00Z,0000380,01000600,0000.45,0000.41,-000.25,0000.34,-000.11,0000.23,0000.11,0000.00,-000.33,25.9,00.0,0644.5,34.7
2016-01-22T01:45:00Z,0000380,01000600,-000.23,-000.35,-000.11,0000.43,-000.10,0000.03,-000.15,-000.05,0000.32,25.9,00.0,0644.6,34.7
2016-01-22T01:46:00Z,0000380,01000600,-000.13,-000.18,0000.04,0000.28,-000.08,-000.33,-000.04,-000.09,-000.10,25.9,00.0,0644.5,34.7
2016-01-22T01:47:00Z,0000380,01000600,0000.52,-000.15,0000.16,0000.03,-000.02,-000.15,0000.26,0000.15,0000.15,25.9,00.0,0644.5,34.7
2016-01-22T01:48:00Z,0000380,01000600,0001.16,-000.10,0000.29,-000.28,0000.07,0000.13,-000.08,-000.02,-000.06,25.9,00.0,0644.5,34.7
2016-01-22T01:49:00Z,0000380,01000600,0000.43,-000.02,0000.10,0000.18,0000.10,0000.08,-000.04,-000.05,-000.18,25.9,00.0,0644.4,34.7
2016-01-22T01:50:00Z,0000380,01000600,0000.93,-000.10,-000.11,0000.43,0000.02,-000.26,0000.12,0000.23,-000.08,25.9,00.0,0644.4,34.7
2016-01-22T01:51:00Z,0000380,01000600,-000.20,0000.00,0000.12,-000.20,-000.05,-000.03,0000.19,0000.02,-000.05,25.9,00.0,0644.5,34.7
2016-01-22T01:52:00Z,0000380,01000600,0000.62,-000.28,-000.16,0000.69,-000.11,0000.07,-000.22,0000.08,0000.01,25.8,00.0,0644.5,34.7
2016-01-22T01:53:00Z,0000380,01000600,0000.51,-000.04,-000.11,0000.29,0000.07,-000.03,0000.12,-000.17,0000.34,25.8,00.0,0644.5,34.7
2016-01-22T01:54:00Z,0000380,01000600,-000.19,-000.44,-000.07,0000.54,-000.23,-000.29,0000.01,0000.03,-000.31,25.8,00.0,0644.5,34.7
2016-01-22T01:55:00Z,0000380,01000600,-000.77,-000.39,-000.22,0000.20,0000.07,-000.16,-000.06,-000.10,0000.06,25.8,00.0,0644.6,34.7
2016-01-22T01:56:00Z,0000380,01000600,-000.83,-000.44,0000.23,0000.69,0000.05,0000.11,0000.12,0000.35,0000.13,25.8,00.0,0644.6,34.7
2016-01-22T01:57:00Z,0000380,41000600,,,,,,,,,,,,0644.6,34.7
2016-01-22T01:58:00Z,0000380,61000600,,,,,,,,,,25.7,00.0,0643.8,34.7
2016-01-22T01:59:00Z,0000380,21000600,,,,,,,,,,25.7,00.0,0643.8,34.7
2016-01-22T02:00:00Z,0000380,21000600,,,,,,,,,,25.7,00.0,0643.8,34.7
2016-01-22T02:01:00Z,0000380,21000600,,,,,,,,,,25.7,00.0,0643.8,34.7
2016-01-22T02:02:00Z,0000380,21000600,,,,,,,,,,25.7,00.0,0643.8,34.7
2016-01-22T02:03:00Z,0000380,61000600,,,,,,,,,,25.7,00.0,0643.8,34.7
2016-01-22T02:04:00Z,0000380,41000600,-001.99,-000.04,-000.70,0000.51,-000.10,-000.20,0000.21,0000.09,-000.21,25.7,00.0,0644.5,34.7
2016-01-22T02:05:00Z,0000380,01000600,-000.58,0000.20,0000.16,0000.16,-000.34,0000.03,0000.03,-000.02,0000.23,25.7,00.0,0644.5,34.7
2016-01-22T02:06:00Z,0000380,01000600,-000.49,-000.54,0000.29,0000.29,0000.10,0000.28,0000.00,0000.10,0000.16,25.7,00.0,0644.5,34.7
2016-01-22T02:07:00Z,0000380,01000600,-001.04,-000.46,-000.04,-000.07,-000.29,0000.02,-000.08,-000.01,-000.08,25.8,00.0,0644.4,34.7
2016-01-22T02:08:00Z,0000380,01000600,-000.43,-000.85,0000.07,0000.64,-000.23,-000.16,0000.04,0000.08,-000.14,25.8,00.0,0644.4,34.7
2016-01-22T02:09:00Z,0000380,01000600,-000.68,-000.02,0000.34,-000.20,-000.21,0000.10,0000.00,-000.14,0000.01,25.7,00.0,0644.5,34.7
2016-01-22T02:10:00Z,0000380,01000600,-000.09,0000.52,-000.42,0000.28,-000.44,0000.02,0000.08,0000.16,0000.19,25.8,00.0,0644.5,34.7
2016-01-22T02:11:00Z,0000380,01000600,-000.87,-000.54,0000.09,0000.02,0000.05,0000.13,0000.07,-000.11,0000.08,25.8,00.0,0644.5,34.7
2016-01-22T02:12:00Z,0000380,01000600,-000.94,-000.42,0000.29,-000.07,0000.11,-000.13,0000.05,0000.04,-000.25,25.8,00.0,0644.5,34.7
2016-01-22T02:13:00Z,0000380,01000600,-000.62,-000.41,-000.05,0000.00,-000.49,0000.07,-000.27,0000.07,-000.02,25.8,00.0,0644.4,34.7
2016-01-22T02:14:00Z,0000380,01000600,-000.38,-000.85,0000.69,-000.39,0000.00,-000.26,-000.03,-000.07,0000.11,25.8,00.0,0644.4,34.7
2016-01-22T02:15:00Z,0000380,01000600,-001.04,-000.39,0000.05,0000.10,-000.33,0000.18,0000.13,0000.07,-000.16,25.8,00.0,0644.4,34.6
2016-01-22T02:16:00Z,0000380,01000600,0000.04,-000.57,-000.04,0000.33,-000.03,-000.07,-000.05,-000.16,0000.18,25.7,00.0,0644.3,34.6
2016-01-22T02:17:00Z,0000380,01000600,-001.24,-000.68,0000.22,-000.79,-000.13,0000.03,-000.20,0000.04,0000.06,25.7,00.0,0644.4,34.6
2016-01-22T02:18:00Z,0000380,01000600,-000.72,-000.68,0000.70,0000.05,-000.28,0000.23,0000.11,0000.07,0000.13,25.7,00.0,0644.4,34.6
2016-01-22T02:19:00Z,0000380,01000600,0000.04,-000.70,-000.09,-000.34,-000.37,-000.03,0000.05,-000.03,-000.15,25.7,00.0,0644.4,34.6
2016-01-22T02:20:00Z,0000380,01000600,-000.51,-000.74,0000.40,-000.46,0000.10,-000.03,-000.17,-000.00,-000.13,25.7,00.0,0644.3,34.6
2016-01-22T02:21:00Z,0000380,01000600,-000.08,-000.42,0000.23,-000.23,-000.44,0000.00,0000.07,-000.01,0000.10,25.7,00.0,0644.2,34.6
2016-01-22T02:22:00Z,0000380,01000600,-000.79,-000.20,-000.05,-000.75,-000.20,-000.34,0000.18,0000.05,-000.23,25.7,00.0,0644.1,34.6
2016-01-22T02:23:00Z,0000380,01000600,0000.04,-000.63,-000.16,-000.13,-000.02,-000.13,-000.15,-000.03,-000.06,25.7,00.0,0644.1,34.6
2016-01-22T02:24:00Z,0000380,01000600,-000.28,-000.26,0000.43,-000.18,0000.16,0000.15,-000.16,-000.01,0000.24,25.8,00.0,0644.1,34.6
2016-01-22T02:25:00Z,0000380,01000600,-000.81,-000.30,0000.34,-000.10,0000.21,0000.03,0000.33,0000.15,0000.12,25.8,00.0,0644.1,34.6
2016-01-22T02:26:00Z,0000380,01000600,-000.81,-000.30,0000.20,-000.79,-000.03,0000.08,-000.12,-000.04,0000.05,25.8,00.0,0644.1,34.6
2016-01-22T02:27:00Z,0000380,01000600,-000.06,-000.57,-000.25,0000.11,0000.34,-000.05,-000.09,0000.04,-000.33,25.8,00.0,0644.2,34.6
2016-01-22T02:28:00Z,0000380,01000600,-000.40,0000.11,0000.25,-000.69,-000.11,0000.18,0000.17,-000.06,0000.24,25.8,00.0,0644.4,34.6
2016-01-22T02:29:00Z,0000380,01000600,0000.00,-000.54,0000.16,-000.56,0000.28,-000.20,0000.05,0000.12,0000.13,25.8,00.0,0644.4,34.6
2016-01-22T02:30:00Z,0000380,01000600,-000.53,-000.06,0000.32,-000.21,0000.00,0000.02,-000.17,-000.21,-000.28,25.8,00.0,0644.4,34.6
2016-01-22T02:31:00Z,0000380,01000600,0000.09,-000.41,0000.16,0000.23,-000.23,0000.10,0000.13,0000.18,0000.33,25.8,00.0,0644.4,34.6
2016-01-22T02:32:00Z,0000380,01000600,-000.87,-000.39,-000.14,-000.52,-000.59,0000.07,0000.06,-000.03,-000.20,25.7,00.0,0644.4,34.6
2016-01-22T02:33:00Z,0000380,01000600,-000.38,0000.06,0000.04,-000.41,-000.11,-000.07,-000.27,-000.18,-000.26,25.7,00.0,0644.4,34.6
2016-01-22T02:34:00Z,0000380,01000600,0000.15,-000.74,-000.04,-000.02,0000.13,-000.08,0000.12,0000.15,0000.12,25.7,00.0,0644.4,34.6
2016-01-22T02:35:00Z,0000380,01000600,-000.41,0000.02,-000.40,-000.25,-000.02,-000.28,0000.30,-000.04,0000.12,25.7,00.0,0644.3,34.6
2016-01-22T02:36:00Z,0000380,01000600,0000.73,-000.85,0000.25,-000.16,-000.23,0000.20,-000.23,0000.02,-000.07,25.7,00.0,0644.4,34.6
2016-01-22T02:37:00Z,0000380,01000600,-000.92,-000.81,0000.05,-000.56,0000.31,-000.20,0000.10,0000.14,0000.07,25.7,00.0,0644.3,34.6
2016-01-22T02:38:00Z,0000380,01000600,-000.90,-000.74,-000.34,-000.10,0000.03,0000.05,0000.01,0000.07,-000.12,25.7,00.0,0644.2,34.6
2016-01-22T02:39:00Z,0000380,01000600,-000.55,-000.24,0000.22,-000.21,-000.31,0000.31,0000.14,0000.09,0000.30,25.7,00.0,0644.1,34.6
2016-01-22T02:40:00Z,0000380,01000600,0000.06,-001.03,0000.22,0000.23,-000.16,-000.18,0000.33,-000.04,-000.02,25.7,00.0,0644.1,34.6
2016-01-22T02:41:00Z,0000380,01000600,-000.60,-000.68,0000.07,0000.49,-000.51,0000.05,-000.14,0000.20,-000.19,25.7,00.0,0644.1,34.6
2016-01-22T02:42:00Z,0000380,01000600,-000.55,-000.68,0000.67,-000.13,-000.51,0000.26,0000.30,-000.08,-000.00,25.7,00.0,0644.1,34.6
2016-01-22T02:43:00Z,0000380,01000600,-000.13,-000.72,0000.29,-000.13,0000.00,0000.02,0000.17,0000.08,0000.27,25.6,00.0,0644.1,34.6
2016-01-22T02:44:00Z,0000380,01000600,-000.36,-000.79,-000.09,-000.41,-000.54,-000.18,-000.02,0000.23,0000.22,25.6,00.0,0644.1,34.6
2016-01-22T02:45:00Z,0000380,01000600,-000.98,-000.68,0000.07,-000.44,-000.37,0000.11,0000.20,0000.13,-000.25,25.6,00.0,0644.0,34.6
2016-01-22T02:46:00Z,0000380,01000600,0000.38,-001.02,0000.05,-000.61,0000.20,-000.16,0000.12,-000.07,0000.06,25.6,00.0,0644.1,34.6
2016-01-22T02:47:00Z,0000380,01000600,-001.17,-000.66,-000.13,-000.28,-000.15,-000.03,0000.09,0000.09,-000.19,25.5,00.0,0644.0,34.6
2016-01-22T02:48:00Z,0000380,01000600,-000.21,-000.02,-000.07,0000.15,-000.28,0000.15,0000.11,0000.14,0000.11,25.5,00.0,0644.1,34.6
2016-01-22T02:49:00Z,0000380,01000600,-000.94,-000.59,0000.27,-000.18,-000.02,0000.00,0000.11,-000.07,0000.26,25.5,00.0,0644.0,34.6
2016-01-22T02:50:00Z,0000380,01000600,0000.19,-000.31,-000.18,-000.62,0000.10,-000.05,-000.22,0000.19,-000.07,25.5,00.0,0644.0,34.6
2016-01-22T02:51:00Z,0000380,01000600,-000.28,-000.44,0000.47,-000.08,-000.20,0000.18,0000.14,0000.02,-000.20,25.5,00.0,0644.0,34.6
2016-01-22T02:52:00Z,0000380,01000600,-000.04,0000.04,0000.61,-000.16,-000.08,-000.02,0000.10,-000.05,0000.16,25.5,00.0,0644.1,34.6
2016-01-22T02:53:00Z,0000380,01000600,-000.64,-000.59,0000.47,-000.54,-000.15,-000.08,0000.08,0000.13,-000.10,25.5,00.0,0644.1,34.6
2016-01-22T02:54:00Z,0000380,01000600,-000.13,-000.61,0000.40,-000.18,-000.36,0000.15,0000.21,-000.01,0000.10,25.5,00.0,0644.0,34.6
2016-01-22T02:55:00Z,0000380,01000600,0001.09,-000.56,0000.21,0000.34,0000.11,-000.29,-000.06,0000.17,0000.02,25.5,00.0,0644.1,34.6
2016-01-22T02:56:00Z,0000380,01000600,-000.47,-000.54,-000.23,-000.57,0000.21,-000.02,0000.16,0000.23,0000.42,25.5,00.0,0644.1,34.6
2016-01-22T02:57:00Z,0000380,41000600,,,,,,,,,,,,0644.1,34.6
2016-01-22T02:58:00Z,0000380,61000600,,,,,,,,,,25.5,00.0,0643.3,34.6
2016-01-22T02:59:00Z,0000380,21000600,,,,,,,,,,25.5,00.0,0643.2,34.6
2016-01-22T03:00:00Z,0000380,21000600,,,,,,,,,,25.5,00.0,0643.2,34.6
2016-01-22T03:01:00Z,0000380,21000600,,,,,,,,,,25.5,00.0,0643.2,34.6
2016-01-22T03:02:00Z,0000380,21000600,,,,,,,,,,25.5,00.0,0643.2,34.6
2016-01-22T03:03:00Z,0000380,61000600,,,,,,,,,,25.5,00.0,0643.2,34.6
2016-01-22T03:04:00Z,0000380,41000600,0000.62,0000.42,-000.21,-000.11,0000.08,-000.02,0000.01,0000.09,0000.13,25.5,00.1,0644.0,34.6
2016-01-22T03:05:00Z,0000380,01000600,0000.26,-000.32,0000.02,0000.21,0000.00,0000.43,0000.02,-000.09,-000.02,25.5,00.0,0644.0,34.6
2016-01-22T03:06:00Z,0000380,01000600,-000.27,0000.05,0000.15,-000.02,0000.39,0000.15,0000.02,0000.01,-000.16,25.5,00.1,0644.0,34.6
2016-01-22T03:07:00Z,0000380,01000600,0000.25,0000.39,-000.09,0000.00,-000.16,-000.29,0000.24,0000.01,0000.08,25.5,00.0,0644.0,34.6
2016-01-22T03:08:00Z,0000380,01000600,-000.19,0000.80,0000.04,-000.28,0000.29,0000.10,-000.18,0000.12,-000.31,25.5,00.1,0643.9,34.6
2016-01-22T03:09:00Z,0000380,01000600,-000.31,0000.74,-000.20,0000.47,0000.15,0000.29,0000.23,0000.11,0000.47,25.5,00.1,0643.9,34.6
2016-01-22T03:10:00Z,0000380,01000600,-000.30,-000.06,0000.05,0000.47,-000.11,0000.18,-000.10,-000.10,-000.09,25.5,00.1,0643.9,34.6
2016-01-22T03:11:00Z,0000380,01000600,0000.68,0000.22,-000.25,-000.16,0000.29,-000.05,0000.19,0000.17,0000.09,25.5,00.1,0643.9,34.6
2016-01-22T03:12:00Z,0000380,01000600,0001.20,0000.59,0000.20,0000.59,0000.02,0000.02,0000.05,-000.04,-000.00,25.5,00.1,0643.9,34.6